Location: Fontaine
(47.8559°N, 6.3348°E)
Time: 04:50:53
(UTC+00:00)

Daily predictions for brighter satellites

Satellite Brightness Start Highest point End
(mag) Time Altitude Azimuth Time Altitude Azimuth Time Altitude Azimuth
CENTAUR R/B 4.0 03:11:58 32° NNE 03:11:58 32° NNE 03:15:49 10° NE
NOSS 3-2 (C) 4.4 03:51:07 39° NNE 03:51:07 39° NNE 03:55:31 10° NE
Cosmos 2369 Rocket 3.5 03:51:56 31° NNE 03:51:56 31° NNE 03:54:48 10° NNE
Cosmos 1943 Rocket 4.2 03:59:15 18° N 03:59:15 18° N 04:00:44 10° NNE
CZ-2C R/B 3.8 03:52:47 10° SE 03:57:48 39° ENE 04:00:26 24° NNE
COSMO-SKYMED 1 4.2 03:56:09 10° SE 03:59:58 33° ENE 03:59:58 33° ENE
Cosmos 2344 3.9 04:05:25 47° NNW 04:05:25 47° NNW 04:12:49 10° NE
Cosmos 2279 Rocket 4.0 04:06:26 37° N 04:09:03 76° E 04:15:15 10° SSE
Envisat 4.2 04:07:25 10° NNE 04:12:15 41° E 04:17:01 10° SSE
USA 238 DEB 4.2 04:17:53 42° NNW 04:17:53 42° NNW 04:23:43 10° NE
USA 238 4.2 04:17:58 42° NNW 04:17:58 42° NNW 04:23:49 10° NE
SJ 16-02 3.0 04:14:28 10° SSE 04:18:22 32° ESE 04:22:16 10° NE
Gblst 52 Del rocket 4.5 04:18:08 62° NNW 04:18:25 63° N 04:25:08 10° E
USA 215 3.6 04:12:32 10° E 04:18:51 55° NNE 04:20:33 44° NNW
Meteor 1-10 Rocket 4.3 04:17:47 40° N 04:19:48 71° ENE 04:25:20 10° SSE
Cosmos 2227 Rocket 4.4 04:17:13 12° N 04:20:39 19° NE 04:24:36 10° E
Cosmos 1515 Rocket 4.3 04:22:57 47° NE 04:23:30 50° ENE 04:27:42 10° SSE
Lacrosse 4 Rocket 4.1 04:23:22 11° NNE 04:24:44 12° NNE 04:26:32 10° NE
Cosmos 2098 Rocket 4.4 04:28:03 37° N 04:28:03 37° N 04:31:39 10° N
Meteor 2-8 Rocket 4.4 04:25:11 18° N 04:29:53 86° E 04:36:00 10° S
ATLAS 5 CENTAUR R/B 1.7 04:41:25 54° SSE 04:41:55 60° SE 04:46:11 10° NE
COSMOS 2487 3.2 04:47:50 48° ENE 04:47:50 48° ENE 04:51:00 10° SE
SKYMED 2 3.4 04:43:36 10° SSE 04:47:57 86° W 04:48:35 65° NNW
Cosmos 1354 Rocket 4.0 04:53:50 41° WSW 04:55:29 61° WNW 05:00:47 10° NNE
H-2A R/B 3.9 04:51:59 10° SE 04:55:45 30° ENE 04:59:36 10° N
CZ-4B R/B 4.1 04:54:44 10° NNE 04:59:15 86° ESE 05:03:42 10° SSW
CENTAUR R/B 3.6 04:59:09 28° NW 05:00:32 30° NNW 05:07:07 10° NE
Cosmos 1515 4.5 04:58:47 16° N 05:01:36 50° ENE 05:05:18 10° SSE
CZ-4C R/B 2.6 05:03:37 10° SSE 05:06:43 81° ENE 05:06:53 76° NNE
FALCON 9 DEB 3.3 05:14:23 45° NNE 05:14:23 45° NNE 05:17:01 10° E
FALCON 9 DEB 3.4 05:16:00 43° NNE 05:16:00 43° NNE 05:18:43 10° E
FALCON 9 DEB 3.6 05:17:27 38° NNE 05:17:28 38° NNE 05:20:13 10° E
Cosmos 1538 Rocket 3.9 05:16:45 20° NNW 05:20:25 76° WSW 05:25:35 10° SSE
MOS 1-B Rocket 4.4 05:15:31 10° SSW 05:20:55 35° W 05:23:07 26° NW
Cosmos 1656 Rocket 4.4 05:20:44 28° NW 05:20:58 28° NW 05:25:40 10° N
Alouette 2 Rocket 3.0 05:20:03 22° NNW 05:22:15 85° WSW 05:25:57 10° S
Meteor 1-27 Rocket 3.7 05:16:53 10° NNW 05:22:29 60° W 05:28:09 10° S
ADEOS 3.5 05:21:35 10° NNE 05:26:51 90° ESE 05:32:04 10° SSW
Cosmos 2297 Rocket 2.7 05:23:49 11° NNW 05:29:14 61° ENE 05:34:50 10° SE
Cosmos 1607 3.9 05:26:35 20° NW 05:31:08 78° SW 05:37:15 10° SSE
ATLAS 3B R/B 2.6 05:26:13 10° SW 05:32:46 82° NW 05:39:44 10° NE
FALCON 9 DEB 4.0 05:32:32 29° NNW 05:33:36 38° NNE 05:36:48 10° E
Cosmos 2369 Rocket 3.5 05:33:45 20° NW 05:34:00 20° NW 05:38:06 10° N
Landsat 5 4.1 05:29:55 10° SSW 05:34:08 39° W 05:36:39 21° NW
Cosmos 1340 Rocket 2.8 05:31:42 10° SSW 05:35:36 54° WNW 05:39:34 10° N
COSMO-SKYMED 1 3.4 05:32:26 10° SSW 05:36:11 28° W 05:37:10 26° WNW
Cosmos 1777 Rocket 4.2 05:31:48 10° SW 05:36:52 49° WNW 05:41:59 10° NNE
CZ-4B R/B 3.0 05:35:06 10° SE 05:38:03 32° ENE 05:40:59 10° N
CZ-2C R/B 3.3 05:33:16 10° SSW 05:38:08 33° W 05:41:55 15° NW
Cosmos 1680 Rocket 4.1 05:34:33 10° NNW 05:39:48 58° ENE 05:44:58 10° SE
Cosmos 158 Rocket 4.1 05:36:53 17° NW 05:40:47 52° WSW 05:45:53 10° S
Cosmos 1943 Rocket 4.1 05:40:47 12° NNW 05:40:47 12° NNW 05:42:40 10° N
Cosmos 1408 Rocket 4.3 05:38:31 10° SW 05:42:17 29° WNW 05:46:06 10° N
CZ-4B R/B 2.6 05:39:41 10° NNE 05:43:17 85° ESE 05:46:55 10° SSW
FALCON 9 DEB 3.2 05:44:13 29° NW 05:45:22 49° NNE 05:48:11 10° E
Cosmos 2263 Rocket 4.3 05:42:03 10° N 05:45:55 19° NE 05:49:48 10° E
Meteor 1-25 Rocket 4.1 05:40:34 10° SSW 05:46:11 81° WNW 05:51:46 10° N
H-2A R/B 4.0 05:42:15 10° NNE 05:46:35 30° E 05:50:56 10° SSE
SMAP 3.8 05:42:25 10° NNE 05:47:01 56° E 05:51:35 10° S
Meteor 1-31 Rocket 3.6 05:46:04 10° N 05:49:27 28° WNW 05:52:49 10° SW
Lacrosse 5 3.4 05:44:58 10° SSW 05:49:40 39° SE 05:54:24 10° ENE
USA 32 4.1 05:45:35 10° NNW 05:50:45 59° W 05:55:54 10° S
Envisat 3.7 05:46:43 10° N 05:51:07 30° WNW 05:55:30 10° WSW
Cosmos 1743 Rocket 3.9 05:50:22 10° SW 05:54:28 39° WNW 05:58:35 10° N
Cosmos 923 Rocket 4.0 05:50:03 10° NNW 05:55:26 84° WSW 06:00:47 10° SSE
Cosmos 1174 4.4 05:55:46 22° WNW 05:56:29 24° NW 05:59:14 10° NNE
SJ 16-02 2.1 05:53:04 10° WSW 05:56:56 30° WNW 06:00:48 10° N
CZ-2C R/B 2.9 05:52:13 10° N 05:57:09 68° WNW 06:02:18 10° SSW
Cosmos 1656 3.9 05:54:28 10° SSW 05:59:51 71° ESE 06:05:18 10° NNE
USA 215 3.4 05:55:17 10° SE 06:01:48 68° SW 06:07:53 12° WNW
Lacrosse 4 Rocket 2.3 06:00:04 10° NNW 06:04:27 51° NE 06:08:50 10° SE
SL-4 R/B 2.0 06:00:58 10° SW 06:04:29 68° SSE 06:08:15 10° ENE
NOAA 6 4.3 05:59:56 10° NNE 06:05:04 74° ESE 06:10:12 10° S
Nadezhda 4 Rocket 4.5 05:59:31 10° SW 06:05:10 36° WNW 06:10:56 10° N
EO 1 Delta rocket 4.3 05:59:05 10° N 06:05:16 86° E 06:10:14 10° S
Cosmos 1666 Rocket 3.8 06:01:04 10° S 06:05:31 77° E 06:10:02 10° NNE
Cosmos 2227 Rocket 2.3 05:59:57 10° NNW 06:05:38 81° ENE 06:11:18 10° SSE
Cosmos 1939 Rocket 2.7 06:03:43 10° N 06:07:37 70° WNW 06:11:27 10° SSW
Cosmos 2228 Rocket 3.7 06:06:33 10° NNW 06:10:41 36° W 06:14:49 10° SSW
Okean 1 3.6 06:08:14 10° NNW 06:12:01 45° W 06:15:47 10° SSW
Meteor 2-4 Rocket 3.9 06:07:54 10° NNW 06:13:53 89° E 06:19:42 10° S
FengYun 1-2 T 4.2 06:09:48 10° NNE 06:15:18 76° WNW 06:20:46 10° SSW
Meteor PRIRODA 4.3 06:13:59 10° N 06:17:15 33° WNW 06:20:32 10° SW
Sich 1 3.3 06:15:38 10° SSW 06:19:41 42° WNW 06:23:47 10° N
Meteor 1-18 Rocket 4.3 06:14:49 10° NNW 06:20:34 61° W 06:26:10 10° S
COSMOS 2487 4.4 06:20:59 10° W 06:21:56 11° W 06:23:04 10° WSW
Cosmos 2112 Rocket 4.0 06:18:12 10° NNW 06:23:33 76° WSW 06:28:47 10° SSE
BREEZE M DEB (TANK) 2.0 06:21:00 11° WNW 06:23:41 54° SSW 06:25:40 10° SE
Cosmos 990 Rocket 4.0 06:18:36 10° SSW 06:23:49 69° WNW 06:29:04 10° NNE
Cosmos 1937 Rocket 4.0 06:19:26 10° S 06:24:37 69° ESE 06:29:55 10° NNE
Cosmos 1092 Rocket 4.4 06:20:10 10° SW 06:26:06 42° WNW 06:32:06 10° N
CZ-4B DEB 4.4 06:20:55 10° NNE 06:26:25 81° ESE 06:31:53 10° SSW
Cosmos 1500 3.7 06:23:01 10° SW 06:26:32 35° WNW 06:30:03 10° N
ATLAS 5 CENTAUR R/B 2.6 06:23:32 10° W 06:26:54 24° NNW 06:30:42 10° NNE
PSLV R/B 3.9 06:26:32 10° S 06:30:35 68° WSW 06:34:42 10° NNW
H-2A R/B 2.9 06:27:44 10° SSW 06:31:38 32° W 06:35:38 10° NNW
Cosmos 1707 Rocket 4.0 06:29:06 10° NNW 06:33:17 41° W 06:37:28 10° SSW
Cosmos 1697 Rocket 3.2 06:29:51 10° SSW 06:35:25 68° ESE 06:41:01 10° NNE
Cosmos 44 3.7 06:36:06 10° SSW 06:41:28 83° SE 06:46:40 10° NE
Cosmos 1980 Rocket 3.8 06:36:43 10° S 06:42:01 41° ESE 06:47:20 10° NE
